Weather History for KIFA - August, 2013

Change the Weather History Date:

Wednesday, August 14, 2013

  Actual Average Record
Temperature  
Mean Temperature 60 °F -  
Max Temperature 73 °F 83 °F 104 °F (1988)
Min Temperature 47 °F 60 °F 39 °F (1964)
Degree Days  
Heating Degree Days 5    
Growing Degree Days 10 (Base 50)    
Moisture  
Dew Point 51 °F    
Average Humidity 71    
Maximum Humidity 95    
Minimum Humidity 37    
Precipitation  
Precipitation 0.00 in - - ()
Sea Level Pressure  
Sea Level Pressure 30.21 in    
Wind  
Wind Speed 0 mph (SSE)    
Max Wind Speed 5 mph    
Max Gust Speed -    
Visibility 10 miles    
Events      
Averages and records for this station are not official NWS values.
T = Trace of Precipitation, MM = Missing Value Source: NWS Daily Summary

Daily Weather History Graph

Daily Weather History Graph

Search for Another Location

Airport or City:

Trip Planner

Search our weather history database for the weather conditions in past years. The results will help you decide how hot, cold, wet, or windy it might be!

Date:

Astronomy

Aug. 14, 2013 Rise Set
Actual Time 6:19 AM CDT 8:15 PM CDT
Civil Twilight 5:48 AM CDT 8:45 PM CDT
Nautical Twilight 5:11 AM CDT 9:22 PM CDT
Astronomical Twilight 4:31 AM CDT 10:02 PM CDT
Moon 2:29 PM CDT (8/14) No Moon Set
Length of Visible Light 14h 56m
Length of Day
13h 56m
First Quarter, 53% of the Moon is Illuminated
Aug 14
First Quarter
Aug 20
Full
Aug 28
Last Quarter
Sep 5
New
Sep 12
First Quarter

Hourly Weather History & Observations

Time (CDT) Temp. Dew Point Humidity Pressure Visibility Wind Dir Wind Speed Gust Speed Precip Events Conditions
12:15 AM 54.5 °F 51.8 °F 91% 30.21 in 10.0 mi Calm Calm - N/A   Clear
12:35 AM 54.3 °F 51.4 °F 90% 30.21 in 10.0 mi Calm Calm - N/A   Clear
12:55 AM 52.9 °F 50.5 °F 92% 30.21 in 10.0 mi Calm Calm - N/A   Clear
1:15 AM 52.5 °F 50.0 °F 91% 30.21 in 10.0 mi Calm Calm - N/A   Clear
1:35 AM 52.2 °F 49.8 °F 92% 30.21 in 10.0 mi Calm Calm - N/A   Clear
1:55 AM 51.8 °F 49.5 °F 92% 30.21 in 10.0 mi Calm Calm - N/A   Clear
2:15 AM 51.3 °F 49.1 °F 92% 30.21 in 10.0 mi Calm Calm - N/A   Clear
2:35 AM 51.3 °F 49.3 °F 93% 30.21 in 10.0 mi Calm Calm - N/A   Clear
2:55 AM 50.5 °F 48.7 °F 94% 30.21 in 10.0 mi Calm Calm - N/A   Clear
3:15 AM 50.7 °F 48.9 °F 94% 30.21 in 10.0 mi Calm Calm - N/A   Clear
3:35 AM 50.0 °F 48.0 °F 93% 30.22 in 10.0 mi Calm Calm - N/A   Clear
3:55 AM 48.9 °F 47.3 °F 94% 30.22 in 10.0 mi Calm Calm - N/A   Clear
4:15 AM 49.1 °F 47.1 °F 93% 30.23 in 10.0 mi Calm Calm - N/A   Clear
4:35 AM 50.2 °F 48.6 °F 94% 30.23 in 10.0 mi Calm Calm - N/A   Clear
4:55 AM 48.9 °F 46.9 °F 93% 30.22 in 10.0 mi Calm Calm - N/A   Clear
5:15 AM 48.9 °F 46.9 °F 93% 30.22 in 10.0 mi Calm Calm - N/A   Clear
5:35 AM 48.6 °F 46.9 °F 94% 30.22 in 10.0 mi Calm Calm - N/A   Clear
5:55 AM 48.2 °F 46.2 °F 93% 30.22 in 10.0 mi Calm Calm - N/A   Clear
6:15 AM 47.5 °F 45.9 °F 94% 30.22 in 10.0 mi Calm Calm - N/A   Clear
6:35 AM 47.7 °F 45.7 °F 93% 30.22 in 10.0 mi Calm Calm - N/A   Clear
6:55 AM 48.7 °F 47.3 °F 95% 30.22 in 10.0 mi Calm Calm - N/A   Clear
7:15 AM 49.3 °F 47.5 °F 94% 30.23 in 10.0 mi Calm Calm - N/A   Clear
7:35 AM 51.1 °F 49.3 °F 94% 30.24 in 10.0 mi Calm Calm - N/A   Clear
7:55 AM 53.1 °F 50.9 °F 92% 30.24 in 10.0 mi Calm Calm - N/A   Clear
8:15 AM 55.2 °F 51.8 °F 88% 30.24 in 10.0 mi Calm Calm - N/A   Clear
8:35 AM 57.6 °F 53.2 °F 85% 30.24 in 10.0 mi Calm Calm - N/A   Clear
8:55 AM 60.4 °F 53.6 °F 78% 30.25 in 10.0 mi Calm Calm - N/A   Clear
9:15 AM 62.8 °F 54.1 °F 73% 30.25 in 10.0 mi Calm Calm - N/A   Clear
9:35 AM 63.5 °F 52.2 °F 67% 30.25 in 10.0 mi Calm Calm - N/A   Clear
9:55 AM 65.5 °F 52.3 °F 62% 30.25 in 10.0 mi Calm Calm - N/A   Clear
10:15 AM 66.9 °F 50.9 °F 56% 30.25 in 10.0 mi SSW 3.5 mph - N/A   Clear
10:35 AM 68.4 °F 51.1 °F 54% 30.25 in 10.0 mi SSW 4.6 mph - N/A   Clear
10:55 AM 69.1 °F 50.4 °F 51% 30.25 in 10.0 mi SSE 3.5 mph - N/A   Clear
11:15 AM 69.4 °F 49.1 °F 48% 30.25 in 10.0 mi Calm Calm - N/A   Clear
11:35 AM 70.2 °F 50.7 °F 50% 30.25 in 10.0 mi South 4.6 mph - N/A   Clear
11:55 AM 70.2 °F 45.7 °F 41% 30.25 in 10.0 mi Calm Calm - N/A   Clear
12:15 PM 70.9 °F 45.5 °F 40% 30.24 in 10.0 mi SW 3.5 mph - N/A   Clear
12:35 PM 71.4 °F 45.0 °F 39% 30.24 in 10.0 mi Calm Calm - N/A   Clear
12:55 PM 70.5 °F 46.2 °F 42% 30.23 in 10.0 mi Calm Calm - N/A   Clear
1:15 PM 69.3 °F 45.3 °F 42% 30.23 in 10.0 mi Calm Calm - N/A   Mostly Cloudy
1:35 PM 72.1 °F 47.7 °F 42% 30.23 in 10.0 mi SE 3.5 mph - N/A   Mostly Cloudy
1:55 PM 72.7 °F 45.7 °F 38% 30.22 in 10.0 mi Calm Calm - N/A   Scattered Clouds
2:15 PM 72.9 °F 48.7 °F 42% 30.21 in 10.0 mi Calm Calm - N/A   Scattered Clouds
2:55 PM 72.5 °F 45.0 °F 37% 30.21 in 10.0 mi Calm Calm - N/A   Scattered Clouds
3:15 PM 73.6 °F 47.3 °F 39% 30.20 in 10.0 mi ENE 4.6 mph - N/A   Scattered Clouds
3:35 PM 71.8 °F 47.3 °F 42% 30.19 in 10.0 mi East 3.5 mph - N/A   Scattered Clouds
3:55 PM 73.4 °F 47.3 °F 39% 30.19 in 10.0 mi Calm Calm - N/A   Mostly Cloudy
4:15 PM 72.9 °F 48.4 °F 42% 30.19 in 10.0 mi Calm Calm - N/A   Scattered Clouds
4:35 PM 71.4 °F 50.0 °F 47% 30.19 in 10.0 mi Calm Calm - N/A   Clear
4:55 PM 70.7 °F 48.9 °F 46% 30.18 in 10.0 mi Calm Calm - N/A   Clear
5:15 PM 71.2 °F 49.3 °F 46% 30.18 in 10.0 mi Calm Calm - N/A   Clear
5:35 PM 71.2 °F 47.1 °F 42% 30.18 in 10.0 mi Calm Calm - N/A   Clear
5:55 PM 71.1 °F 48.0 °F 44% 30.18 in 10.0 mi Calm Calm - N/A   Clear
6:15 PM 70.3 °F 50.9 °F 50% 30.17 in 10.0 mi East 3.5 mph - N/A   Clear
6:35 PM 69.4 °F 52.9 °F 56% 30.16 in 10.0 mi Calm Calm - N/A   Clear
6:55 PM 69.1 °F 54.0 °F 58% 30.16 in 10.0 mi Calm Calm - N/A   Clear
7:15 PM 68.4 °F 55.2 °F 63% 30.16 in 10.0 mi Calm Calm - N/A   Clear
7:35 PM 67.3 °F 57.2 °F 70% 30.16 in 10.0 mi Calm Calm - N/A   Clear
7:55 PM 66.9 °F 57.6 °F 72% 30.16 in 10.0 mi Calm Calm - N/A   Clear
8:15 PM 65.8 °F 58.6 °F 78% 30.16 in 10.0 mi Calm Calm - N/A   Clear
8:35 PM 64.6 °F 59.4 °F 83% 30.16 in 10.0 mi Calm Calm - N/A   Clear
8:55 PM 64.2 °F 59.0 °F 83% 30.16 in 10.0 mi Calm Calm - N/A   Clear
9:15 PM 63.1 °F 58.3 °F 84% 30.16 in 10.0 mi Calm Calm - N/A   Clear
9:35 PM 62.6 °F 56.8 °F 81% 30.17 in 10.0 mi Calm Calm - N/A   Clear
9:55 PM 61.7 °F 58.1 °F 88% 30.17 in 10.0 mi Calm Calm - N/A   Clear
10:15 PM 61.9 °F 57.9 °F 87% 30.17 in 10.0 mi Calm Calm - N/A   Clear
10:35 PM 61.9 °F 57.6 °F 86% 30.17 in 10.0 mi Calm Calm - N/A   Clear
10:55 PM 61.3 °F 57.4 °F 87% 30.17 in 10.0 mi Calm Calm - N/A   Clear
11:15 PM 61.2 °F 55.4 °F 81% 30.17 in 10.0 mi Calm Calm - N/A   Clear
11:35 PM 61.3 °F 55.4 °F 81% 30.17 in 10.0 mi Calm Calm - N/A   Clear
11:55 PM 61.2 °F 55.2 °F 81% 30.16 in 10.0 mi Calm Calm - N/A   Clear